Terug naar catalogus

SCOUT B-1 DEB

ActiefLEO
NORAD 8868·DEBRIS·🇺🇸 United States

Gelanceerd May 22, 1976 vanaf Vandenberg Space Force Base

Loading…

Volgende Passages (komende 24 uur)

TLE

VersSource: Space-Track

Epoch: Sep 14, 2026, 09:04 UTC

1 08868U 76047D   26257.37804744  .00000130  00000-0  16721-3 0  9997
2 08868 100.0790  46.8845 0050113  43.7337 345.5614 13.81727603529867

Volg SCOUT B-1 DEB in realtime met AllMySat

Download on the App Store